Dewpoint
69 70 71 71 60 61 55 51 52 53 55 57 57 57 57 58 53 52 69 70 71 73 74 74 76 75 75 75 75 75 75 75 75 75 75 74 74 74 74 74 74 73 73 73 73 73 74 75 75
68 70 73 67 58 52 51 50 54 54 56 56 56 57 57 58 64 67 67 71 72 72 73 74 76 76 75 75 75 75 75 75 75 75 74 75 75 74 74 73 73 73 73 73 73 73 73 74 74
69 72 67 63 59 51 48 51 55 55 56 56 55 58 59 63 64 65 69 70 71 72 73 74 75 75 75 75 75 75 74 75 75 75 75 75 75 75 74 74 74 73 73 73 73 73 73 73 74
70 70 68 60 55 52 50 54 54 55 56 57 58 57 60 65 64 67 69 71 71 72 73 75 75 75 75 75 75 75 73 73 74 74 75 74 74 74 74 73 73 72 72 72 73 73 73 73 73
70 67 60 57 55 49 52 56 57 56 56 57 57 57 60 64 66 68 70 71 72 73 73 72 76 75 75 75 74 73 73 73 74 74 74 74 74 73 72 72 72 72 72 72 72 73 72 73 73
66 65 57 54 53 53 55 57 57 57 58 58 57 57 60 65 66 69 70 70 72 72 73 73 76 75 75 75 74 74 74 74 74 74 73 73 72 72 71 71 71 72 72 73 71 72 71 73 71
64 62 56 57 54 55 56 58 56 57 57 57 57 57 61 64 67 68 68 69 71 72 72 73 73 72 75 75 74 73 73 73 73 73 72 72 72 71 72 72 73 73 74 73 71 71 71 71 72
67 63 58 57 53 54 56 55 58 57 57 58 58 56 58 62 67 68 69 69 70 72 72 72 72 71 71 72 75 74 74 73 73 73 72 72 73 72 72 73 75 73 74 73 72 71 71 71 73
66 59 57 56 57 57 55 54 58 58 57 57 57 57 58 62 66 67 67 66 68 70 71 71 71 71 71 71 72 75 74 73 73 72 73 72 72 72 72 71 74 74 74 74 73 72 71 72 73
60 56 55 59 58 60 61 57 56 56 56 56 57 58 57 61 61 63 62 64 67 69 69 69 70 70 69 69 71 72 72 72 70 69 72 73 72 72 73 75 73 74 75 75 73 73 73 73 71
55 52 55 58 56 62 62 60 61 56 55 55 56 56 56 57 58 59 60 64 67 68 67 68 69 69 67 66 71 72 72 72 66 71 73 73 72 73 72 68 65 66 71 73 74 73 71 70 71
52 53 54 56 60 63 64 64 61 61 57 57 57 56 56 57 56 56 56 59 66 66 65 66 66 67 65 70 70 72 72 72 71 71 72 71 69 67 71 68 66 69 69 69 72 73 72 71 71
52 50 55 58 60 62 64 63 63 61 58 57 56 56 55 56 57 57 57 58 64 60 61 64 66 67 69 70 71 72 71 72 69 70 72 69 68 70 71 68 67 71 71 68 68 70 73 72 71
55 56 55 57 59 60 62 62 63 63 62 58 56 55 55 56 57 57 57 57 58 62 63 66 67 69 69 69 70 70 71 71 66 70 72 71 72 71 70 69 68 69 71 70 69 70 71 71 68
53 55 58 58 58 59 59 57 60 63 64 57 55 55 54 55 55 56 56 56 63 64 65 68 69 70 69 70 69 71 72 71 66 69 71 71 73 72 69 69 69 70 72 71 72 71 69 68 68
45 50 50 57 58 58 58 54 60 64 65 60 55 55 54 54 54 55 55 60 63 65 68 68 70 69 69 69 70 72 71 71 71 71 72 72 72 74 70 69 70 71 72 71 71 71 68 68 68
37 39 51 53 56 57 55 56 58 63 63 61 55 54 54 55 54 55 55 61 63 66 67 67 70 69 69 69 70 72 71 70 71 71 71 72 72 71 69 69 67 70 69 69 69 68 67 67 66
39 47 50 50 55 55 54 53 58 60 59 58 58 54 54 53 53 54 55 61 64 66 66 67 68 69 68 70 70 72 71 70 71 71 71 69 72 71 71 71 66 65 66 67 67 66 68 68 66
37 35 45 50 56 53 53 52 51 55 55 55 60 58 54 52 53 54 55 63 65 66 67 68 68 68 70 69 69 70 68 70 71 72 71 69 71 74 70 68 67 69 68 67 66 66 62 61 66
36 37 46 52 55 50 53 51 51 51 55 55 59 61 56 53 53 53 55 64 64 65 67 68 68 69 69 68 70 66 69 70 71 70 69 72 72 73 71 70 68 68 66 63 64 62 62 57 62
35 31 45 48 53 51 51 49 51 52 55 60 60 61 61 53 52 52 55 63 64 64 66 69 68 69 68 69 71 71 71 71 70 69 69 71 72 73 73 73 72 72 65 64 64 61 59 53 57
32 33 38 49 48 44 48 39 49 51 51 55 59 60 57 58 53 52 55 62 63 63 66 70 71 69 69 71 69 68 69 67 68 68 68 70 72 72 73 73 74 71 67 64 63 64 63 59 53
33 33 33 48 46 43 49 43 42 51 50 51 53 59 57 58 55 54 54 60 63 63 66 70 70 69 69 72 72 69 68 68 69 69 69 69 70 73 74 73 73 72 71 68 65 64 62 61 59
23 26 31 38 38 33 35 41 39 50 46 48 51 54 58 59 56 56 52 56 62 63 66 70 69 68 69 70 71 72 71 69 69 69 69 69 70 71 74 74 73 72 71 70 67 66 60 59 60
22 23 23 30 34 31 32 40 36 47 48 50 52 52 55 59 56 57 53 54 60 63 66 70 68 67 69 69 71 72 70 71 70 69 69 70 69 70 72 74 74 73 73 71 69 68 66 63 57
16 20 23 23 31 32 32 31 33 39 46 51 52 53 57 59 59 57 55 54 59 63 65 69 69 68 69 70 70 72 73 72 70 70 70 69 69 70 73 74 74 75 75 72 72 69 69 67 64
10 17 24 25 34 28 30 30 40 47 47 49 53 54 57 58 58 57 58 55 57 61 64 66 70 69 69 70 71 71 73 73 71 71 70 70 70 70 73 74 75 75 75 74 73 71 70 69 67
6 14 19 22 23 27 28 30 37 42 46 50 50 52 55 57 57 57 58 58 57 59 63 66 68 69 69 69 70 71 72 73 71 72 71 71 71 72 73 74 74 75 75 74 74 73 73 70 69
7 6 24 22 26 24 24 26 35 39 40 47 51 54 55 59 57 57 58 59 59 60 62 65 67 68 69 69 70 70 71 73 72 73 74 71 71 73 73 74 74 74 75 74 74 73 73 72 71
7 6 10 15 20 28 26 26 32 36 42 46 55 58 61 62 62 55 58 60 60 59 61 64 68 67 69 69 70 70 70 71 72 72 72 74 71 73 73 73 74 73 73 74 74 73 74 73 72
Lifted_Index
0 -1 -2 -2 -2 -1 -0 0 0 0 -0 -0 -0 -1 -1 -1 -1 -2 -3 -3 -4 -5 -6 -6 -7 -7 -6 -7 -7 -7 -8 -8 -8 -8 -7 -6 -6 -5 -5 -4 -4 -4 -4 -4 -4 -4 -5 -5 -5
-1 -1 -2 -2 -2 -1 -0 0 0 -0 -0 -0 -0 -0 -1 -1 -2 -2 -3 -3 -4 -5 -5 -6 -7 -7 -7 -7 -7 -7 -7 -8 -8 -7 -7 -6 -6 -5 -5 -4 -4 -4 -4 -4 -4 -4 -4 -5 -5
-2 -2 -2 -2 -1 -1 0 0 -0 -1 -1 -0 -0 -0 -1 -2 -2 -2 -3 -3 -4 -5 -5 -6 -6 -7 -7 -7 -7 -7 -7 -7 -7 -7 -7 -6 -6 -5 -5 -4 -4 -4 -4 -4 -4 -4 -4 -4 -4
-2 -3 -2 -2 -1 -1 -0 -0 -1 -1 -1 -1 -0 -0 -1 -1 -2 -2 -2 -3 -4 -5 -5 -6 -6 -6 -6 -6 -6 -6 -6 -6 -6 -7 -6 -6 -5 -5 -4 -4 -3 -3 -3 -4 -4 -4 -4 -4 -4
-2 -2 -2 -2 -1 -1 -1 -1 -2 -1 -1 -1 -0 -0 -1 -1 -2 -2 -3 -3 -4 -4 -5 -6 -6 -6 -6 -6 -6 -5 -5 -6 -6 -6 -6 -5 -5 -4 -3 -3 -3 -3 -3 -3 -4 -4 -4 -4 -4
-2 -2 -1 -1 -1 -1 -1 -2 -2 -1 -1 -1 -0 -0 -1 -2 -2 -2 -2 -3 -3 -4 -5 -5 -6 -6 -6 -6 -5 -5 -5 -5 -6 -6 -5 -5 -4 -4 -3 -3 -3 -3 -3 -3 -3 -3 -4 -4 -4
-2 -1 -1 -1 -1 -1 -1 -1 -1 -1 -1 -0 0 -0 -1 -2 -2 -2 -2 -2 -3 -3 -4 -5 -5 -5 -5 -6 -5 -5 -5 -5 -5 -5 -5 -5 -4 -4 -3 -3 -3 -4 -4 -3 -3 -3 -3 -3 -4
-2 -1 -1 -1 -1 -1 -1 -1 -1 -1 -1 -0 0 0 -1 -1 -2 -2 -2 -2 -2 -3 -3 -4 -4 -4 -4 -5 -5 -5 -5 -5 -5 -5 -5 -5 -5 -5 -4 -4 -4 -4 -4 -4 -3 -3 -3 -3 -3
-1 -1 -1 -1 -1 -1 -1 -1 -1 -1 -1 -1 -0 0 -0 -1 -1 -1 -1 -1 -1 -2 -3 -3 -3 -3 -3 -3 -4 -4 -5 -5 -4 -5 -5 -5 -5 -5 -4 -4 -4 -5 -5 -4 -3 -3 -2 -3 -3
-1 -1 -0 -1 -1 -1 -1 -1 -1 -2 -1 -1 -0 0 0 -0 -1 -0 -0 -0 -1 -2 -2 -2 -2 -2 -2 -2 -3 -3 -4 -4 -4 -4 -4 -4 -4 -4 -4 -4 -4 -4 -4 -4 -3 -3 -3 -3 -2
-1 -0 -0 -1 -1 -2 -2 -2 -2 -2 -2 -1 -0 0 1 0 0 0 0 -0 -1 -1 -1 -1 -2 -2 -2 -2 -2 -3 -3 -3 -2 -3 -3 -3 -3 -3 -2 -2 -2 -2 -3 -3 -3 -3 -3 -2 -2
-1 -1 -1 -1 -1 -2 -2 -2 -2 -2 -1 -1 -0 0 1 1 1 1 1 0 -0 -1 -1 -1 -2 -2 -2 -2 -3 -3 -3 -3 -2 -2 -2 -2 -2 -1 -1 -0 -0 -1 -2 -2 -3 -3 -2 -2 -2
-1 -1 -1 -1 -2 -2 -2 -2 -2 -2 -1 -1 0 0 1 1 1 1 1 1 0 0 -0 -1 -2 -2 -3 -3 -3 -3 -3 -3 -2 -2 -2 -2 -1 -1 -1 -0 0 -1 -1 -2 -2 -2 -2 -2 -2
-1 -1 -1 -1 -2 -2 -2 -2 -2 -1 -1 -0 0 1 1 1 0 1 1 1 1 1 0 -1 -2 -2 -2 -2 -2 -3 -3 -3 -2 -2 -2 -2 -2 -1 -1 -1 -1 -1 -1 -1 -2 -2 -2 -2 -2
-1 -1 -1 -2 -2 -2 -2 -1 -1 -1 -1 -0 0 1 1 1 0 0 1 2 2 1 -0 -1 -2 -2 -2 -2 -2 -2 -3 -3 -2 -3 -3 -3 -3 -2 -2 -1 -1 -1 -2 -2 -2 -2 -2 -2 -2
-0 -0 -1 -2 -2 -2 -1 -1 -0 -1 -1 -0 0 0 1 1 0 0 1 2 1 0 -1 -2 -2 -3 -2 -2 -3 -3 -3 -2 -2 -3 -3 -4 -4 -3 -2 -2 -2 -2 -2 -2 -3 -2 -2 -2 -2
-0 -0 -1 -2 -2 -2 -1 -1 -0 -0 -1 -0 0 0 0 1 1 1 1 1 1 -0 -1 -2 -2 -2 -2 -2 -3 -3 -3 -3 -3 -3 -3 -4 -4 -3 -3 -2 -2 -2 -3 -3 -3 -3 -3 -2 -2
-0 -1 -1 -2 -2 -1 -0 0 0 0 -0 -0 -0 -0 -0 -0 0 1 1 1 1 -0 -1 -1 -2 -2 -2 -2 -3 -3 -3 -3 -3 -3 -3 -4 -4 -4 -3 -2 -2 -2 -2 -2 -2 -3 -3 -3 -2
0 0 -1 -2 -2 -1 -0 1 1 0 -0 -1 -1 -1 -1 -1 -0 1 1 0 0 -0 -1 -1 -2 -2 -2 -2 -3 -3 -3 -3 -3 -3 -3 -4 -4 -4 -4 -3 -2 -1 -2 -2 -2 -2 -3 -2 -2
1 1 -0 -2 -2 -1 -0 0 0 -0 -2 -3 -3 -2 -1 -1 -0 0 0 -0 -0 -0 -1 -1 -1 -2 -2 -2 -3 -3 -3 -3 -3 -3 -3 -4 -5 -5 -4 -3 -3 -2 -1 -1 -1 -2 -2 -2 -1
1 1 -0 -1 -2 -1 -1 -1 -0 -1 -2 -3 -3 -2 -1 -1 -0 0 0 0 0 0 -0 -1 -2 -2 -1 -2 -3 -4 -4 -4 -3 -3 -3 -4 -4 -4 -4 -4 -4 -2 -0 0 -0 -0 -1 -1 -1
1 1 0 -1 -1 -1 -1 -1 -1 -1 -1 -1 -1 -1 -1 -1 -1 -0 0 0 0 0 -0 -1 -2 -1 -1 -2 -3 -3 -4 -3 -3 -2 -3 -4 -4 -4 -4 -4 -4 -2 -0 1 1 1 1 1 0
1 1 0 -1 -1 -1 -1 -1 -0 -1 -1 -0 -0 -1 -1 -2 -2 -1 -0 0 0 0 -1 -1 -1 -1 -1 -2 -3 -3 -3 -3 -3 -2 -2 -3 -4 -4 -4 -4 -4 -3 -1 0 2 2 2 2 2
2 1 0 -1 -1 0 0 0 0 -1 -1 -1 -1 -1 -1 -2 -2 -2 -1 -0 0 0 -1 -2 -1 -1 -1 -2 -2 -3 -3 -3 -2 -2 -2 -3 -4 -4 -4 -4 -4 -4 -3 -1 0 2 2 3 3
2 2 1 -0 -0 0 0 1 1 -0 -1 -1 -2 -2 -2 -2 -3 -2 -2 -1 -0 -0 -1 -2 -2 -1 -1 -1 -2 -3 -3 -3 -2 -2 -2 -2 -3 -4 -5 -5 -5 -4 -4 -3 -1 -0 1 2 3
3 2 1 0 0 0 0 0 1 -0 -1 -2 -2 -2 -2 -2 -3 -3 -3 -2 -1 -1 -1 -2 -2 -1 -1 -1 -1 -2 -3 -3 -2 -2 -2 -2 -3 -4 -5 -5 -5 -5 -5 -4 -3 -2 -1 0 1
3 3 2 1 0 0 0 0 -0 -1 -2 -2 -2 -2 -3 -3 -3 -3 -3 -3 -2 -2 -1 -2 -2 -2 -1 -1 -1 -2 -3 -3 -3 -2 -2 -3 -3 -3 -4 -5 -6 -6 -6 -5 -5 -4 -3 -3 -2
3 3 2 1 0 0 0 0 -0 -1 -1 -2 -2 -2 -3 -3 -3 -3 -3 -3 -3 -2 -2 -2 -2 -2 -2 -1 -1 -2 -3 -3 -3 -3 -3 -3 -3 -4 -4 -5 -6 -6 -6 -6 -6 -6 -5 -5 -4
2 2 2 1 0 0 0 0 -0 -1 -1 -1 -2 -2 -3 -3 -3 -3 -3 -4 -4 -3 -2 -2 -2 -2 -2 -2 -2 -2 -2 -3 -3 -3 -3 -3 -4 -4 -5 -5 -6 -6 -6 -6 -6 -6 -6 -7 -6
2 2 1 1 0 0 1 0 -0 -1 -1 -1 -2 -2 -3 -3 -3 -3 -3 -4 -4 -3 -3 -2 -2 -2 -3 -2 -2 -2 -2 -2 -2 -3 -3 -4 -4 -4 -5 -5 -5 -6 -6 -7 -7 -6 -7 -7 -7